[TLELIST] Archives

 

[TLELIST] Current TLEs

April 3rd 2025 PDT

HST 1 20580U 90037B 25092.58312973 .00012518 00000-0 49093-3 0 9995 2 20580 28.4673 197.0153 0001792 351.7568 8.2997 15.24169189721390 ISS (ZARYA) 1 25544U 98067A 25093.13425953 .00020483 00000-0 37635-3 0 9995 2 25544 51.6367 318.7328 0004848 3.8316 356.2709 15.49192057503527 CXO 1 25867U 99040B 25095.39036286 .00000903 00000-0 00000-0 0 9990 2 25867 47.9212 133.2668 8535756 308.2377 359.9595 0.37806383 15664 ...Continue Reading

[TLELIST] Current TLEs

April 2nd 2025 PDT

HST 1 20580U 90037B 25091.46999278 .00010749 00000-0 42079-3 0 9991 2 20580 28.4678 204.5482 0001734 338.2290 21.8230 15.24142639720966 ISS (ZARYA) 1 25544U 98067A 25092.10239068 .00016360 00000-0 28998-3 0 9992 2 25544 51.6353 323.8439 0003442 72.6732 287.4633 15.50393872503360 CXO 1 25867U 99040B 25092.74607696 .00000906 00000-0 00000-0 0 9998 2 25867 47.8580 133.4184 8540188 308.1512 0.0724 0.37808999 15653 ...Continue Reading

[TLELIST] Current TLEs

April 1st 2025 PDT

HST 1 20580U 90037B 25090.61875820 .00011017 00000-0 43176-3 0 9991 2 20580 28.4680 210.3081 0001679 327.2053 32.8437 15.24123827720837 ISS (ZARYA) 1 25544U 98067A 25091.13552361 .00016105 00000-0 28592-3 0 9995 2 25544 51.6363 328.6366 0003495 70.2380 289.8986 15.50361619503219 CXO 1 25867U 99040B 25092.74607696 .00000906 00000-0 00000-0 0 9998 2 25867 47.8580 133.4184 8540188 308.1512 0.0724 0.37808999 15653 ...Continue Reading

[TLELIST] Current TLEs

March 31st 2025 PDT

HST 1 20580U 90037B 25090.02943569 .00010741 00000-0 42089-3 0 9997 2 20580 28.4681 214.2955 0001632 319.3218 40.7254 15.24111311721005 ISS (ZARYA) 1 25544U 98067A 25090.50208904 .00016177 00000-0 28736-3 0 9995 2 25544 51.6395 331.7733 0003654 68.9145 353.5231 15.50341422503118 CXO 1 25867U 99040B 25092.74607696 .00000906 00000-0 00000+0 0 9997 2 25867 47.8580 133.4184 8540188 308.1512 0.0724 0.37808999 26813 ...Continue Reading

[TLELIST] Current TLEs

March 31st 2025 PDT

HST 1 20580U 90037B 25090.02943569 .00010741 00000-0 42089-3 0 9997 2 20580 28.4681 214.2955 0001632 319.3218 40.7254 15.24111311721005 ISS (ZARYA) 1 25544U 98067A 25090.50208904 .00016177 00000-0 28736-3 0 9995 2 25544 51.6395 331.7733 0003654 68.9145 353.5231 15.50341422503118 CXO 1 25867U 99040B 25092.74607696 .00000906 00000-0 00000+0 0 9997 2 25867 47.8580 133.4184 8540188 308.1512 0.0724 0.37808999 26813 ...Continue Reading

[TLELIST] Current TLEs

March 30th 2025 PDT

HST 1 20580U 90037B 25088.71981283 .00011643 00000-0 45726-3 0 9998 2 20580 28.4682 223.1560 0001600 301.0921 58.9516 15.24083077720548 ISS (ZARYA) 1 25544U 98067A 25089.20172942 .00018280 00000-0 32408-3 0 9990 2 25544 51.6366 338.2240 0003572 62.6445 297.4908 15.50299454502915 CXO 1 25867U 99040B 25090.10282638 .00000974 00000-0 00000-0 0 9996 2 25867 47.7629 133.6260 8543538 308.0279 0.3493 0.37811648 15644 ...Continue Reading

[TLELIST] Current TLEs

March 30th 2025 PDT

HST 1 20580U 90037B 25088.71981283 .00011643 00000-0 45726-3 0 9998 2 20580 28.4682 223.1560 0001600 301.0921 58.9516 15.24083077720548 ISS (ZARYA) 1 25544U 98067A 25089.20172942 .00018280 00000-0 32408-3 0 9990 2 25544 51.6366 338.2240 0003572 62.6445 297.4908 15.50299454502915 CXO 1 25867U 99040B 25090.10282638 .00000974 00000-0 00000-0 0 9996 2 25867 47.7629 133.6260 8543538 308.0279 0.3493 0.37811648 15644 ...Continue Reading

[TLELIST] Current TLEs

March 29th 2025 PDT

HST 1 20580U 90037B 25087.73757977 .00011733 00000-0 46118-3 0 9996 2 20580 28.4679 229.8010 0001606 288.4991 71.5428 15.24059510720399 ISS (ZARYA) 1 25544U 98067A 25088.17033919 .00028783 00000-0 50574-3 0 9998 2 25544 51.6368 343.3364 0003580 59.4106 300.7235 15.50261465502752 CXO 1 25867U 99040B 25090.10282638 .00000974 00000-0 00000-0 0 9996 2 25867 47.7629 133.6260 8543538 308.0279 0.3493 0.37811648 15644 ...Continue Reading

[TLELIST] Current TLEs

March 29th 2025 PDT

HST 1 20580U 90037B 25087.73757977 .00011733 00000-0 46118-3 0 9996 2 20580 28.4679 229.8010 0001606 288.4991 71.5428 15.24059510720399 ISS (ZARYA) 1 25544U 98067A 25088.17033919 .00028783 00000-0 50574-3 0 9998 2 25544 51.6368 343.3364 0003580 59.4106 300.7235 15.50261465502752 CXO 1 25867U 99040B 25090.10282638 .00000974 00000-0 00000-0 0 9996 2 25867 47.7629 133.6260 8543538 308.0279 0.3493 0.37811648 15644 ...Continue Reading

[TLELIST] Current TLEs

March 28th 2025 PDT

HST 1 20580U 90037B 25086.75533214 .00013840 00000-0 54577-3 0 9992 2 20580 28.4673 236.4468 0001530 277.2829 82.7591 15.24035327720245 ISS (ZARYA) 1 25544U 98067A 25087.13891722 .00026637 00000-0 46979-3 0 9997 2 25544 51.6369 348.4472 0003631 58.3052 301.8291 15.50197518502597 CXO 1 25867U 99040B 25087.45883413 .00001117 00000-0 00000+0 0 9997 2 25867 47.6572 133.8492 8543856 307.9121 0.4392 0.37806966 26790 ...Continue Reading
  • This mailing list is a public mailing list - anyone may join or leave, at any time.
  • This mailing list is announce-only.

International Space Station (ISS) / Hubble Space Telescope (HST) / Chandra X-Ray Observatory Orbital Data via EMAIL

Privacy Policy:

Private list